デ・ヴィコ-スイフト-ニート彗星

54P/de Vico-Swift-NEAT (2024)

English version
Home page
Updated on November 27, 2024

---------------------------------------------------------------------

・ プロフィール

・ 写真集

・ 軌道要素

Epoch 2024 Oct. 17.0 TT = JDT 2460600.5
T 2024 Sept. 3.94500 TT                                 Rudenko
q   2.1718767            (2000.0)            P               Q
n   0.13378982     Peri.    1.98544     +0.99990249     -0.01378796
a   3.7860587      Node   358.79786     +0.01090888     +0.87027041
e   0.4263489      Incl.    6.06408     +0.00871873     +0.49238127
P   7.37
>From 201 observations 1965 Aug. 4-2024 Aug. 29, mean residual 0".8.
     Nongravitational parameters A1 = +0.66, A2 = +0.0683.

・ 光度変化

        m1 = 9.0 + 5 logΔ + 25.0 log r

---------------------------------------------------------------------

軌道要素はM.P.E.C. 2024-R10に掲載されたものです。
光度グラフはComet for Windowsで作成したものです。

---------------------------------------------------------------------

Copyright(C) Seiichi Yoshida (comet@aerith.net). All rights reserved.